AWC78E LEMD-LIRF

Flight info

Callsign AWC78E
Flight time 1h 55m
Altitude 36000
Route PINAR N870 PONEN/N0424F370 N870 SEROX/N0419F360 N870 BCN N725 OSPOK/N0421F370 DCT NOLVI DCT ORKUM/N0417F360 DCT ELSAG DCT ALG DCT TINTO DCT VALMA
Aircraft A21N/M-SDE2E3FGHIRWXY/LB1

Departure

Time 2026-05-06 13:27
Airport Adolfo Suárez Madrid–Barajas Airport (LEMD)

Arrival

Time 2026-05-06 15:23
Airport Rome–Fiumicino Leonardo da Vinci International Airport (LIRF)
Time Latitude Longitude Altitude Speed Heading
2026-05-06 12:06 40.49332 -3.56340 1970 ft 0 kts 271°
2026-05-06 13:17 40.49332 -3.56345 1970 ft 2 kts 271°
2026-05-06 13:17 40.49332 -3.56387 1971 ft 7 kts 271°
2026-05-06 13:18 40.49355 -3.56451 1973 ft 10 kts 342°
2026-05-06 13:18 40.49434 -3.56450 1972 ft 13 kts
2026-05-06 13:18 40.49531 -3.56452 1975 ft 15 kts
2026-05-06 13:18 40.49641 -3.56451 1972 ft 17 kts
2026-05-06 13:19 40.49762 -3.56453 1973 ft 14 kts 359°
2026-05-06 13:19 40.49870 -3.56454 1974 ft 17 kts 360°
2026-05-06 13:19 40.49954 -3.56455 1972 ft 11 kts 359°
2026-05-06 13:19 40.50019 -3.56439 1974 ft 9 kts 60°
2026-05-06 13:20 40.50027 -3.56355 1969 ft 10 kts 89°
2026-05-06 13:20 40.50027 -3.56255 1967 ft 12 kts 90°
2026-05-06 13:20 40.50027 -3.56144 1964 ft 10 kts 90°
2026-05-06 13:20 40.50027 -3.56089 1964 ft 2 kts 87°
2026-05-06 13:25 40.50028 -3.56082 1964 ft 2 kts 87°
2026-05-06 13:25 40.50034 -3.56035 1968 ft 8 kts 73°
2026-05-06 13:25 40.50071 -3.55953 1965 ft 12 kts 43°
2026-05-06 13:25 40.50133 -3.55920 1966 ft 0 kts 359°
2026-05-06 13:26 40.50139 -3.55920 1966 ft 5 kts 359°
2026-05-06 13:26 40.50358 -3.55924 1967 ft 68 kts 359°
2026-05-06 13:27 40.51064 -3.55926 1964 ft 132 kts
2026-05-06 13:27 40.52095 -3.55935 2004 ft 162 kts 359°
2026-05-06 13:27 40.53195 -3.55967 2600 ft 158 kts
2026-05-06 13:27 40.54306 -3.56039 3191 ft 162 kts 359°
2026-05-06 13:28 40.55377 -3.55669 3738 ft 163 kts 31°
2026-05-06 13:28 40.56452 -3.55009 4217 ft 181 kts 21°
2026-05-06 13:28 40.57756 -3.54462 4672 ft 210 kts 18°
2026-05-06 13:28 40.59173 -3.53843 5128 ft 217 kts 26°
2026-05-06 13:29 40.60473 -3.52689 5606 ft 240 kts 41°
2026-05-06 13:29 40.61799 -3.51187 6181 ft 260 kts 41°
2026-05-06 13:29 40.63185 -3.49616 7057 ft 265 kts 41°
2026-05-06 13:29 40.64595 -3.48024 8110 ft 268 kts 41°
2026-05-06 13:30 40.66023 -3.46420 9171 ft 272 kts 41°
2026-05-06 13:30 40.67454 -3.44813 10188 ft 276 kts 41°
2026-05-06 13:30 40.68964 -3.43116 10893 ft 295 kts 41°
2026-05-06 13:30 40.70571 -3.41316 11611 ft 309 kts 41°
2026-05-06 13:31 40.72224 -3.39458 12366 ft 315 kts 41°
2026-05-06 13:31 40.73905 -3.37574 12787 ft 318 kts 41°
2026-05-06 13:31 40.75591 -3.35687 13365 ft 319 kts 41°
2026-05-06 13:31 40.77238 -3.33836 14223 ft 325 kts 41°
2026-05-06 13:32 40.78966 -3.31890 15137 ft 329 kts 41°
2026-05-06 13:32 40.80718 -3.29919 16045 ft 333 kts 41°
2026-05-06 13:32 40.82466 -3.27947 16894 ft 337 kts 41°
2026-05-06 13:32 40.84208 -3.25848 17722 ft 341 kts 47°
2026-05-06 13:33 40.85561 -3.23264 18516 ft 346 kts 64°
2026-05-06 13:33 40.86348 -3.20252 19299 ft 350 kts 75°
2026-05-06 13:33 40.86944 -3.17114 20064 ft 354 kts 76°
2026-05-06 13:33 40.87539 -3.13934 20799 ft 358 kts 76°
2026-05-06 13:34 40.88151 -3.10728 21523 ft 362 kts 75°
2026-05-06 13:34 40.88781 -3.07486 22207 ft 366 kts 75°
2026-05-06 13:34 40.89422 -3.04206 22887 ft 371 kts 75°
2026-05-06 13:34 40.90062 -3.00933 23523 ft 375 kts 75°
2026-05-06 13:35 40.90716 -2.97582 24168 ft 378 kts 75°
2026-05-06 13:35 40.91377 -2.94200 24789 ft 382 kts 75°
2026-05-06 13:35 40.92044 -2.90782 25392 ft 386 kts 75°
2026-05-06 13:35 40.92716 -2.87337 25976 ft 389 kts 75°
2026-05-06 13:36 40.93392 -2.83860 26534 ft 393 kts 75°
2026-05-06 13:36 40.94075 -2.80343 27072 ft 396 kts 75°
2026-05-06 13:36 40.94763 -2.76796 27597 ft 400 kts 75°
2026-05-06 13:36 40.95446 -2.73268 28082 ft 403 kts 75°
2026-05-06 13:37 40.96143 -2.69668 28558 ft 406 kts 75°
2026-05-06 13:37 40.96843 -2.66041 29017 ft 409 kts 75°
2026-05-06 13:37 40.97548 -2.62379 29455 ft 412 kts 75°
2026-05-06 13:37 40.98258 -2.58691 29893 ft 415 kts 75°
2026-05-06 13:38 40.98972 -2.54982 30319 ft 418 kts 75°
2026-05-06 13:38 40.99690 -2.51247 30731 ft 421 kts 75°
2026-05-06 13:38 41.00415 -2.47478 31133 ft 423 kts 75°
2026-05-06 13:38 41.01142 -2.43692 31522 ft 426 kts 75°
2026-05-06 13:39 41.01874 -2.39876 31901 ft 429 kts 75°
2026-05-06 13:39 41.02600 -2.36090 32272 ft 431 kts 75°
2026-05-06 13:39 41.03339 -2.32234 32705 ft 432 kts 75°
2026-05-06 13:39 41.04074 -2.28393 33206 ft 430 kts 75°
2026-05-06 13:40 41.04809 -2.24556 33664 ft 429 kts 75°
2026-05-06 13:40 41.05533 -2.20728 34101 ft 428 kts 76°
2026-05-06 13:40 41.06237 -2.16900 34515 ft 427 kts 76°
2026-05-06 13:40 41.06938 -2.13079 34913 ft 426 kts 76°
2026-05-06 13:41 41.07633 -2.09268 35299 ft 426 kts 76°
2026-05-06 13:41 41.08323 -2.05507 35666 ft 425 kts 76°
2026-05-06 13:41 41.09030 -2.01706 36019 ft 424 kts 76°
2026-05-06 13:41 41.09742 -1.97915 36344 ft 424 kts 76°
2026-05-06 13:42 41.10447 -1.94119 36463 ft 425 kts 76°
2026-05-06 13:42 41.11860 -1.86515 36456 ft 424 kts 76°
2026-05-06 13:43 41.13267 -1.78907 36857 ft 425 kts 76°
2026-05-06 13:43 41.13966 -1.75096 37161 ft 425 kts 76°
2026-05-06 13:43 41.14660 -1.71285 37436 ft 425 kts 76°
2026-05-06 13:43 41.15342 -1.67517 37684 ft 426 kts 76°
2026-05-06 13:44 41.16039 -1.63687 37921 ft 427 kts 76°
2026-05-06 13:44 41.16740 -1.59853 38147 ft 428 kts 76°
2026-05-06 13:44 41.17440 -1.56013 38343 ft 429 kts 76°
2026-05-06 13:44 41.18142 -1.52148 38470 ft 431 kts 76°
2026-05-06 13:45 41.18838 -1.48286 38479 ft 431 kts 76°
2026-05-06 13:45 41.20916 -1.36736 38444 ft 431 kts 76°
2026-05-06 13:46 41.22320 -1.29002 38439 ft 431 kts 76°
2026-05-06 13:46 41.23714 -1.21266 38438 ft 431 kts 76°
2026-05-06 13:47 41.25097 -1.13523 38440 ft 431 kts 76°
2026-05-06 13:47 41.26473 -1.05768 38438 ft 431 kts 76°
2026-05-06 13:48 41.27830 -0.98065 38438 ft 431 kts 76°
2026-05-06 13:48 41.29201 -0.90313 38438 ft 431 kts 76°
2026-05-06 13:49 41.30565 -0.82552 38439 ft 431 kts 76°
2026-05-06 13:49 41.31921 -0.74792 38437 ft 431 kts 77°
2026-05-06 13:50 41.33257 -0.67073 38439 ft 431 kts 77°
2026-05-06 13:50 41.34597 -0.59309 38437 ft 431 kts 77°
2026-05-06 13:51 41.35396 -0.51434 38441 ft 431 kts 89°
2026-05-06 13:51 41.35325 -0.43447 38441 ft 432 kts 90°
2026-05-06 13:52 41.35246 -0.35456 38442 ft 431 kts 90°
2026-05-06 13:52 41.35173 -0.27523 38441 ft 432 kts 90°
2026-05-06 13:53 41.35111 -0.19536 38441 ft 432 kts 90°
2026-05-06 13:53 41.35035 -0.11550 38440 ft 432 kts 90°
2026-05-06 13:54 41.34945 -0.03614 38441 ft 431 kts 90°
2026-05-06 13:54 41.34861 0.04321 38441 ft 432 kts 90°
2026-05-06 13:55 41.34763 0.12309 38441 ft 432 kts 90°
2026-05-06 13:55 41.34670 0.20289 38441 ft 432 kts 90°
2026-05-06 13:56 41.34566 0.28281 38440 ft 432 kts 90°
2026-05-06 13:56 41.34452 0.36213 38439 ft 432 kts 90°
2026-05-06 13:57 41.34338 0.44199 38439 ft 432 kts 90°
2026-05-06 13:57 41.34217 0.52185 38440 ft 431 kts 90°
2026-05-06 13:58 41.34087 0.60166 38439 ft 432 kts 90°
2026-05-06 13:58 41.33964 0.68099 38439 ft 432 kts 91°
2026-05-06 13:59 41.33824 0.76077 38439 ft 432 kts 91°
2026-05-06 13:59 41.33680 0.84065 38442 ft 431 kts 91°
2026-05-06 14:00 41.33531 0.92035 38441 ft 431 kts 91°
2026-05-06 14:00 41.33386 0.99999 38440 ft 431 kts 91°
2026-05-06 14:01 41.33222 1.07977 38441 ft 431 kts 91°
2026-05-06 14:01 41.33054 1.15892 38441 ft 431 kts 91°
2026-05-06 14:02 41.32885 1.23861 38440 ft 431 kts 91°
2026-05-06 14:02 41.32710 1.31827 38440 ft 431 kts 91°
2026-05-06 14:03 41.32529 1.39793 38440 ft 431 kts 91°
2026-05-06 14:03 41.32348 1.47711 38440 ft 431 kts 91°
2026-05-06 14:04 41.32157 1.55686 38441 ft 431 kts 91°
2026-05-06 14:04 41.31969 1.63729 38449 ft 441 kts 91°
2026-05-06 14:05 41.31755 1.71908 38443 ft 442 kts 91°
2026-05-06 14:05 41.31542 1.80029 38440 ft 442 kts 91°
2026-05-06 14:06 41.31324 1.88205 38441 ft 442 kts 91°
2026-05-06 14:06 41.31104 1.96382 38443 ft 442 kts 91°
2026-05-06 14:07 41.30869 2.04553 38449 ft 442 kts 91°
2026-05-06 14:07 41.30394 2.12704 38447 ft 443 kts 100°
2026-05-06 14:08 41.29087 2.20656 38449 ft 443 kts 102°
2026-05-06 14:08 41.27751 2.28663 38443 ft 443 kts 102°
2026-05-06 14:09 41.26424 2.36663 38444 ft 443 kts 102°
2026-05-06 14:09 41.25091 2.44662 38439 ft 443 kts 102°
2026-05-06 14:10 41.23757 2.52657 38442 ft 443 kts 102°
2026-05-06 14:10 41.22422 2.60592 38442 ft 443 kts 102°
2026-05-06 14:11 41.21073 2.68583 38445 ft 443 kts 102°
2026-05-06 14:11 41.19716 2.76570 38441 ft 443 kts 102°
2026-05-06 14:12 41.18357 2.84555 38438 ft 443 kts 102°
2026-05-06 14:12 41.17003 2.92484 38442 ft 443 kts 102°
2026-05-06 14:13 41.15634 3.00464 38437 ft 443 kts 102°
2026-05-06 14:13 41.14259 3.08435 38441 ft 444 kts 102°
2026-05-06 14:14 41.12872 3.16409 38436 ft 443 kts 102°
2026-05-06 14:14 41.11480 3.24323 38441 ft 443 kts 102°
2026-05-06 14:15 41.10080 3.32277 38440 ft 443 kts 102°
2026-05-06 14:15 41.08680 3.40236 38436 ft 443 kts 102°
2026-05-06 14:16 41.07272 3.48202 38439 ft 443 kts 102°
2026-05-06 14:16 41.05892 3.56105 38440 ft 443 kts 102°
2026-05-06 14:17 41.04484 3.64063 38441 ft 444 kts 102°
2026-05-06 14:17 41.03067 3.72011 38439 ft 444 kts 102°
2026-05-06 14:18 41.01642 3.79954 38441 ft 444 kts 102°
2026-05-06 14:18 41.00217 3.87845 38439 ft 443 kts 103°
2026-05-06 14:19 40.98783 3.95785 38439 ft 443 kts 103°
2026-05-06 14:19 40.97352 4.03654 38433 ft 437 kts 103°
2026-05-06 14:20 40.95909 4.11551 38439 ft 443 kts 103°
2026-05-06 14:20 40.94450 4.19479 38439 ft 444 kts 103°
2026-05-06 14:21 40.93000 4.27349 38440 ft 444 kts 103°
2026-05-06 14:21 40.91534 4.35276 38439 ft 444 kts 103°
2026-05-06 14:22 40.90068 4.43192 38441 ft 444 kts 103°
2026-05-06 14:22 40.88593 4.51112 38437 ft 444 kts 103°
2026-05-06 14:23 40.87128 4.58968 38438 ft 443 kts 103°
2026-05-06 14:23 40.85701 4.66891 38436 ft 443 kts 99°
2026-05-06 14:24 40.84915 4.74963 38438 ft 443 kts 96°
2026-05-06 14:24 40.84162 4.83030 38439 ft 443 kts 96°
2026-05-06 14:25 40.83412 4.91043 38441 ft 443 kts 96°
2026-05-06 14:25 40.82654 4.99117 38440 ft 443 kts 96°
2026-05-06 14:26 40.81884 5.07180 38440 ft 443 kts 96°
2026-05-06 14:26 40.81113 5.15244 38439 ft 443 kts 96°
2026-05-06 14:27 40.80343 5.23257 38440 ft 443 kts 96°
2026-05-06 14:27 40.79564 5.31320 38440 ft 443 kts 96°
2026-05-06 14:28 40.78780 5.39373 38441 ft 443 kts 96°
2026-05-06 14:28 40.78010 5.47436 38440 ft 443 kts 96°
2026-05-06 14:29 40.77220 5.55496 38440 ft 443 kts 97°
2026-05-06 14:29 40.76414 5.63558 38440 ft 443 kts 97°
2026-05-06 14:30 40.75613 5.71550 38439 ft 443 kts 97°
2026-05-06 14:30 40.74799 5.79597 38440 ft 443 kts 97°
2026-05-06 14:31 40.73980 5.87649 38439 ft 443 kts 97°
2026-05-06 14:31 40.73154 5.95700 38446 ft 443 kts 97°
2026-05-06 14:32 40.72326 6.03686 38439 ft 443 kts 97°
2026-05-06 14:32 40.71491 6.11730 38438 ft 443 kts 97°
2026-05-06 14:33 40.70648 6.19778 38444 ft 443 kts 97°
2026-05-06 14:33 40.69797 6.27815 38442 ft 443 kts 97°
2026-05-06 14:34 40.68951 6.35792 38437 ft 443 kts 97°
2026-05-06 14:34 40.68090 6.43835 38436 ft 443 kts 97°
2026-05-06 14:35 40.67223 6.51866 38445 ft 443 kts 97°
2026-05-06 14:35 40.66353 6.59893 38437 ft 443 kts 97°
2026-05-06 14:36 40.65476 6.67921 38444 ft 443 kts 97°
2026-05-06 14:36 40.64599 6.75895 38443 ft 443 kts 97°
2026-05-06 14:37 40.63712 6.83925 38444 ft 443 kts 97°
2026-05-06 14:37 40.62816 6.91945 38441 ft 443 kts 97°
2026-05-06 14:38 40.61917 6.99967 38441 ft 443 kts 97°
2026-05-06 14:38 40.61021 7.07928 38440 ft 443 kts 98°
2026-05-06 14:39 40.60110 7.15948 38442 ft 443 kts 98°
2026-05-06 14:39 40.59194 7.23963 38440 ft 443 kts 98°
2026-05-06 14:40 40.58275 7.31978 38438 ft 443 kts 98°
2026-05-06 14:40 40.57348 7.39985 38440 ft 443 kts 98°
2026-05-06 14:41 40.56522 7.47957 38431 ft 442 kts 91°
2026-05-06 14:41 40.57014 7.56007 38439 ft 442 kts 83°
2026-05-06 14:42 40.57750 7.64041 38440 ft 442 kts 83°
2026-05-06 14:42 40.58449 7.72086 38440 ft 442 kts 83°
2026-05-06 14:43 40.59129 7.80069 38441 ft 442 kts 83°
2026-05-06 14:43 40.59805 7.88115 38440 ft 442 kts 83°
2026-05-06 14:44 40.60477 7.96156 38438 ft 442 kts 83°
2026-05-06 14:45 40.61479 8.08226 38440 ft 442 kts 83°
2026-05-06 14:45 40.62137 8.16218 38446 ft 442 kts 83°
2026-05-06 14:46 40.62931 8.24237 38444 ft 442 kts 76°
2026-05-06 14:46 40.65104 8.31788 38446 ft 442 kts 66°
2026-05-06 14:47 40.67503 8.39240 38445 ft 441 kts 67°
2026-05-06 14:47 40.69862 8.46702 38447 ft 442 kts 67°
2026-05-06 14:48 40.72197 8.54133 38445 ft 442 kts 67°
2026-05-06 14:48 40.74541 8.61614 38447 ft 442 kts 67°
2026-05-06 14:49 40.76878 8.69100 38451 ft 441 kts 68°
2026-05-06 14:49 40.79210 8.76596 38445 ft 442 kts 68°
2026-05-06 14:50 40.81530 8.84050 38444 ft 442 kts 68°
2026-05-06 14:50 40.83853 8.91555 38439 ft 442 kts 68°
2026-05-06 14:51 40.86173 8.99064 38444 ft 442 kts 68°
2026-05-06 14:51 40.88492 9.06587 38440 ft 442 kts 68°
2026-05-06 14:52 40.90802 9.14105 38446 ft 442 kts 68°
2026-05-06 14:52 40.93081 9.21596 38441 ft 442 kts 68°
2026-05-06 14:53 40.95373 9.29132 38441 ft 442 kts 68°
2026-05-06 14:53 40.97667 9.36672 38443 ft 442 kts 68°
2026-05-06 14:54 40.99975 9.44200 38441 ft 442 kts 68°
2026-05-06 14:54 41.02252 9.51697 38441 ft 442 kts 68°
2026-05-06 14:55 41.04532 9.59246 38443 ft 442 kts 68°
2026-05-06 14:55 41.06780 9.66777 38076 ft 438 kts 68°
2026-05-06 14:55 41.07912 9.70533 37803 ft 439 kts 68°
2026-05-06 14:56 41.09044 9.74290 37548 ft 439 kts 68°
2026-05-06 14:56 41.10177 9.78056 37296 ft 440 kts 68°
2026-05-06 14:56 41.11309 9.81818 37051 ft 440 kts 68°
2026-05-06 14:56 41.12437 9.85590 36799 ft 440 kts 68°
2026-05-06 14:57 41.13546 9.89309 36553 ft 440 kts 68°
2026-05-06 14:57 41.14670 9.93085 36313 ft 440 kts 68°
2026-05-06 14:57 41.15794 9.96865 36062 ft 440 kts 68°
2026-05-06 14:57 41.16916 10.00643 35806 ft 440 kts 68°
2026-05-06 14:58 41.18041 10.04421 35558 ft 441 kts 68°
2026-05-06 14:58 41.19164 10.08202 35311 ft 441 kts 68°
2026-05-06 14:58 41.20288 10.11999 35059 ft 442 kts 68°
2026-05-06 14:58 41.21396 10.15754 34802 ft 442 kts 68°
2026-05-06 14:59 41.22532 10.19607 34558 ft 443 kts 68°
2026-05-06 14:59 41.23638 10.23368 34316 ft 443 kts 69°
2026-05-06 14:59 41.24754 10.27190 34064 ft 444 kts 69°
2026-05-06 14:59 41.25873 10.31021 33816 ft 444 kts 69°
2026-05-06 15:00 41.26996 10.34852 33569 ft 445 kts 68°
2026-05-06 15:00 41.28118 10.38682 33318 ft 446 kts 69°
2026-05-06 15:00 41.29244 10.42528 33067 ft 446 kts 69°
2026-05-06 15:00 41.30365 10.46375 32818 ft 447 kts 69°
2026-05-06 15:01 41.31477 10.50178 32559 ft 447 kts 69°
2026-05-06 15:01 41.32596 10.54014 31919 ft 444 kts 69°
2026-05-06 15:01 41.33711 10.57834 31120 ft 442 kts 69°
2026-05-06 15:01 41.34819 10.61638 30279 ft 442 kts 69°
2026-05-06 15:02 41.35930 10.65468 29399 ft 445 kts 69°
2026-05-06 15:02 41.37037 10.69322 28508 ft 446 kts 69°
2026-05-06 15:02 41.38153 10.73181 27596 ft 448 kts 69°
2026-05-06 15:02 41.39279 10.77070 26600 ft 451 kts 69°
2026-05-06 15:03 41.40391 10.80923 25629 ft 452 kts 69°
2026-05-06 15:03 41.41515 10.84826 24748 ft 451 kts 69°
2026-05-06 15:03 41.42635 10.88717 23906 ft 449 kts 69°
2026-05-06 15:03 41.43747 10.92585 23111 ft 446 kts 69°
2026-05-06 15:04 41.44850 10.96436 22402 ft 442 kts 69°
2026-05-06 15:04 41.45928 11.00244 21652 ft 438 kts 69°
2026-05-06 15:04 41.47001 11.04042 20849 ft 436 kts 69°
2026-05-06 15:04 41.48066 11.07797 20101 ft 431 kts 69°
2026-05-06 15:05 41.49102 11.11477 19373 ft 427 kts 69°
2026-05-06 15:05 41.50137 11.15164 18645 ft 423 kts 69°
2026-05-06 15:05 41.51163 11.18816 17947 ft 419 kts 69°
2026-05-06 15:05 41.52243 11.22378 17420 ft 410 kts 63°
2026-05-06 15:06 41.53886 11.25459 17093 ft 407 kts 47°
2026-05-06 15:06 41.56060 11.27853 16795 ft 406 kts 33°
2026-05-06 15:06 41.58541 11.29641 16468 ft 404 kts 27°
2026-05-06 15:06 41.61051 11.31317 16108 ft 402 kts 27°
2026-05-06 15:07 41.63543 11.33007 15743 ft 400 kts 28°
2026-05-06 15:07 41.65974 11.34686 15384 ft 398 kts 28°
2026-05-06 15:07 41.68397 11.36349 15022 ft 396 kts 27°
2026-05-06 15:07 41.70845 11.38009 14656 ft 394 kts 27°
2026-05-06 15:08 41.73274 11.39670 14287 ft 392 kts 28°
2026-05-06 15:08 41.75693 11.41335 13922 ft 389 kts 28°
2026-05-06 15:08 41.78092 11.42996 13556 ft 387 kts 28°
2026-05-06 15:08 41.80477 11.44650 13208 ft 385 kts 28°
2026-05-06 15:09 41.82851 11.46303 12859 ft 383 kts 28°
2026-05-06 15:09 41.85208 11.47953 12510 ft 381 kts 28°
2026-05-06 15:09 41.87495 11.49548 12153 ft 368 kts 29°
2026-05-06 15:09 41.89499 11.51557 11765 ft 354 kts 45°
2026-05-06 15:10 41.90985 11.54107 11383 ft 341 kts 56°
2026-05-06 15:10 41.92264 11.56721 10987 ft 329 kts 57°
2026-05-06 15:10 41.93486 11.59236 10582 ft 314 kts 57°
2026-05-06 15:10 41.94662 11.61623 10183 ft 299 kts 56°
2026-05-06 15:11 41.95788 11.63895 9805 ft 286 kts 56°
2026-05-06 15:11 41.96873 11.66080 9450 ft 277 kts 56°
2026-05-06 15:11 41.97935 11.68213 9087 ft 273 kts 56°
2026-05-06 15:11 41.98992 11.70326 8774 ft 272 kts 56°
2026-05-06 15:12 41.99687 11.71722 8567 ft 271 kts 56°
2026-05-06 15:12 42.01068 11.74505 8174 ft 269 kts 56°
2026-05-06 15:12 42.02105 11.76595 7876 ft 268 kts 56°
2026-05-06 15:12 42.03135 11.78674 7578 ft 267 kts 56°
2026-05-06 15:13 42.04162 11.80746 7286 ft 266 kts 56°
2026-05-06 15:13 42.04841 11.82115 7086 ft 265 kts 56°
2026-05-06 15:13 42.05859 11.84170 6785 ft 263 kts 56°
2026-05-06 15:13 42.06837 11.86245 6463 ft 262 kts 65°
2026-05-06 15:14 42.07492 11.88535 6191 ft 262 kts 70°
2026-05-06 15:14 42.07731 11.90939 5872 ft 262 kts 95°
2026-05-06 15:14 42.07169 11.94067 5492 ft 257 kts 105°
2026-05-06 15:14 42.06828 11.95610 5292 ft 254 kts 105°
2026-05-06 15:15 42.06323 11.97863 4997 ft 249 kts 105°
2026-05-06 15:15 42.05824 12.00081 4701 ft 245 kts 105°
2026-05-06 15:15 42.05336 12.02262 4424 ft 240 kts 105°
2026-05-06 15:15 42.04871 12.04337 4219 ft 230 kts 105°
2026-05-06 15:16 42.04418 12.06345 4076 ft 218 kts 108°
2026-05-06 15:16 42.03987 12.08242 3961 ft 207 kts 108°
2026-05-06 15:16 42.03573 12.10094 3977 ft 207 kts 108°
2026-05-06 15:16 42.03156 12.11944 3771 ft 207 kts 108°
2026-05-06 15:17 42.02739 12.13809 3442 ft 209 kts 108°
2026-05-06 15:17 42.02313 12.15670 3112 ft 206 kts 108°
2026-05-06 15:17 42.01894 12.17456 2982 ft 193 kts 111°
2026-05-06 15:17 42.01238 12.18892 2957 ft 170 kts 139°
2026-05-06 15:18 42.00285 12.19552 2959 ft 145 kts 161°
2026-05-06 15:18 41.99337 12.19960 2942 ft 143 kts 163°
2026-05-06 15:18 41.98407 12.20357 2835 ft 142 kts 163°
2026-05-06 15:18 41.97469 12.20753 2671 ft 140 kts 163°
2026-05-06 15:19 41.96544 12.21142 2485 ft 138 kts 163°
2026-05-06 15:19 41.95629 12.21526 2312 ft 137 kts 163°
2026-05-06 15:19 41.94720 12.21907 2122 ft 137 kts 162°
2026-05-06 15:19 41.93819 12.22284 1943 ft 135 kts 162°
2026-05-06 15:20 41.92936 12.22655 1766 ft 134 kts 162°
2026-05-06 15:20 41.92051 12.23027 1585 ft 132 kts 162°
2026-05-06 15:20 41.91579 12.23224 1487 ft 131 kts 162°
2026-05-06 15:20 41.90701 12.23593 1318 ft 130 kts 161°
2026-05-06 15:21 41.89850 12.23949 1142 ft 130 kts 161°
2026-05-06 15:21 41.88990 12.24309 977 ft 129 kts 161°
2026-05-06 15:21 41.88132 12.24669 799 ft 129 kts 161°
2026-05-06 15:21 41.87272 12.25033 634 ft 129 kts 162°
2026-05-06 15:22 41.86410 12.25386 469 ft 130 kts 162°
2026-05-06 15:22 41.85549 12.25757 273 ft 130 kts 162°
2026-05-06 15:22 41.84682 12.26118 108 ft 131 kts 162°
2026-05-06 15:22 41.83826 12.26470 24 ft 122 kts 162°
2026-05-06 15:23 41.83176 12.26747 16 ft 66 kts 163°
2026-05-06 15:23 41.82874 12.26862 18 ft 31 kts 171°
2026-05-06 15:23 41.82660 12.26858 16 ft 31 kts 194°
2026-05-06 15:23 41.82558 12.26825 16 ft 4 kts 191°
2026-05-06 15:24 41.82557 12.26825 16 ft 0 kts 191°
2026-05-06 15:24 41.82555 12.26824 16 ft 2 kts 191°
2026-05-06 15:25 41.82523 12.26815 16 ft 8 kts 192°
2026-05-06 15:25 41.82447 12.26792 16 ft 14 kts 193°
2026-05-06 15:25 41.82342 12.26783 16 ft 17 kts 174°
2026-05-06 15:25 41.82236 12.26811 16 ft 15 kts 161°
2026-05-06 15:26 41.82126 12.26861 16 ft 18 kts 161°
2026-05-06 15:26 41.81999 12.26914 16 ft 21 kts 163°
2026-05-06 15:26 41.81855 12.26974 17 ft 23 kts 162°
2026-05-06 15:26 41.81693 12.27042 17 ft 25 kts 162°
2026-05-06 15:27 41.81526 12.27113 17 ft 25 kts 162°
2026-05-06 15:27 41.81350 12.27187 17 ft 28 kts 162°
2026-05-06 15:27 41.81178 12.27260 20 ft 24 kts 162°
2026-05-06 15:27 41.81013 12.27328 19 ft 26 kts 164°
2026-05-06 15:28 41.80853 12.27338 18 ft 24 kts 191°
2026-05-06 15:28 41.80691 12.27286 18 ft 24 kts 218°
2026-05-06 15:28 41.80624 12.27101 18 ft 19 kts 251°
2026-05-06 15:28 41.80576 12.26931 18 ft 20 kts 249°
2026-05-06 15:29 41.80525 12.26750 20 ft 21 kts 250°
2026-05-06 15:29 41.80473 12.26558 21 ft 23 kts 250°
2026-05-06 15:29 41.80420 12.26388 22 ft 18 kts 221°
2026-05-06 15:29 41.80328 12.26381 19 ft 5 kts 156°
2026-05-06 15:30 41.80290 12.26400 19 ft 7 kts 163°
2026-05-06 15:30 41.80234 12.26411 20 ft 9 kts 187°
2026-05-06 15:30 41.80169 12.26377 21 ft 11 kts 205°
2026-05-06 15:30 41.80097 12.26331 21 ft 12 kts 205°
2026-05-06 15:31 41.80035 12.26344 19 ft 8 kts 97°
2026-05-06 15:31 41.80046 12.26398 19 ft 2 kts 69°
2026-05-06 15:31 41.80049 12.26410 19 ft 0 kts 69°